time,lat,lon
20070702T18:43:08 ,       38.6560 ,     -121.402
20070702T18:43:09 ,       38.6550 ,     -121.402
20070702T18:43:10 ,       38.6550 ,     -121.402
20070702T18:43:11 ,       38.6540 ,     -121.402
20070702T18:43:12 ,       38.6530 ,     -121.402
20070702T18:43:13 ,       38.6520 ,     -121.402
20070702T18:43:14 ,       38.6510 ,     -121.402
20070702T18:43:15 ,       38.6510 ,     -121.402
20070702T18:43:16 ,       38.6500 ,     -121.402
20070702T18:43:17 ,       38.6490 ,     -121.402
20070702T18:43:18 ,       38.6480 ,     -121.402
20070702T18:43:19 ,       38.6470 ,     -121.402
20070702T18:43:20 ,       38.6470 ,     -121.402
20070702T18:43:21 ,       38.6460 ,     -121.402
20070702T18:43:22 ,       38.6450 ,     -121.402
20070702T18:43:23 ,       38.6440 ,     -121.402
20070702T18:43:24 ,       38.6430 ,     -121.402
20070702T18:43:25 ,       38.6430 ,     -121.402
20070702T18:43:26 ,       38.6420 ,     -121.402
20070702T18:43:27 ,       38.6410 ,     -121.402
20070702T18:43:28 ,       38.6400 ,     -121.402
20070702T18:43:29 ,       38.6390 ,     -121.402
20070702T18:43:30 ,       38.6380 ,     -121.402
20070702T18:43:31 ,       38.6380 ,     -121.402
20070702T18:43:32 ,       38.6370 ,     -121.402
20070702T18:43:33 ,       38.6360 ,     -121.402
20070702T18:43:34 ,       38.6350 ,     -121.402
20070702T18:43:35 ,       38.6340 ,     -121.402
20070702T18:43:36 ,       38.6330 ,     -121.402
20070702T18:43:37 ,       38.6320 ,     -121.402
20070702T18:43:38 ,       38.6310 ,     -121.402
20070702T18:43:39 ,       38.6310 ,     -121.402
20070702T18:43:40 ,       38.6300 ,     -121.402
20070702T18:43:41 ,       38.6290 ,     -121.402
20070702T18:43:42 ,       38.6280 ,     -121.402
20070702T18:43:43 ,       38.6270 ,     -121.402
20070702T18:43:44 ,       38.6260 ,     -121.402
20070702T18:43:45 ,       38.6250 ,     -121.401
20070702T18:43:46 ,       38.6240 ,     -121.401
20070702T18:43:47 ,       38.6230 ,     -121.401
20070702T18:43:48 ,       38.6220 ,     -121.401
20070702T18:43:49 ,       38.6210 ,     -121.401
20070702T18:43:50 ,       38.6200 ,     -121.401
20070702T18:43:51 ,       38.6190 ,     -121.401
20070702T18:43:52 ,       38.6180 ,     -121.401
20070702T18:43:53 ,       38.6170 ,     -121.401
20070702T18:43:54 ,       38.6160 ,     -121.401
20070702T18:43:55 ,       38.6150 ,     -121.401
20070702T18:43:56 ,       38.6140 ,     -121.401
20070702T18:43:57 ,       38.6130 ,     -121.401
20070702T18:43:58 ,       38.6120 ,     -121.401
20070702T18:43:59 ,       38.6110 ,     -121.401
20070702T18:44:00 ,       38.6100 ,     -121.401
20070702T18:44:01 ,       38.6090 ,     -121.401
20070702T18:44:02 ,       38.6080 ,     -121.401
20070702T18:44:03 ,       38.6070 ,     -121.401
20070702T18:44:04 ,       38.6060 ,     -121.401
20070702T18:44:05 ,       38.6050 ,     -121.401
20070702T18:44:06 ,       38.6040 ,     -121.401
20070702T18:44:07 ,       38.6030 ,     -121.401
20070702T18:44:08 ,       38.6020 ,     -121.401
20070702T18:44:09 ,       38.6010 ,     -121.401
20070702T18:44:10 ,       38.6000 ,     -121.401
20070702T18:44:11 ,       38.5990 ,     -121.401
20070702T18:44:12 ,       38.5970 ,     -121.400
20070702T18:44:13 ,       38.5960 ,     -121.400
20070702T18:44:14 ,       38.5950 ,     -121.400
20070702T18:44:15 ,       38.5940 ,     -121.400
20070702T18:44:16 ,       38.5930 ,     -121.400
20070702T18:44:17 ,       38.5920 ,     -121.400
20070702T18:44:18 ,       38.5910 ,     -121.400
20070702T18:44:19 ,       38.5900 ,     -121.400
20070702T18:44:20 ,       38.5890 ,     -121.400
20070702T18:44:21 ,       38.5870 ,     -121.400
20070702T18:44:22 ,       38.5860 ,     -121.400
20070702T18:44:23 ,       38.5850 ,     -121.400
20070702T18:44:24 ,       38.5840 ,     -121.399
20070702T18:44:25 ,       38.5830 ,     -121.399
20070702T18:44:26 ,       38.5820 ,     -121.399
20070702T18:44:27 ,       38.5800 ,     -121.399
20070702T18:44:28 ,       38.5790 ,     -121.398
20070702T18:44:29 ,       38.5780 ,     -121.398
20070702T18:44:30 ,       38.5770 ,     -121.398
20070702T18:44:31 ,       38.5760 ,     -121.398
20070702T18:44:32 ,       38.5750 ,     -121.397
20070702T18:44:33 ,       38.5730 ,     -121.397
20070702T18:44:34 ,       38.5720 ,     -121.397
20070702T18:44:35 ,       38.5710 ,     -121.396
20070702T18:44:36 ,       38.5700 ,     -121.396
20070702T18:44:37 ,       38.5690 ,     -121.395
20070702T18:44:38 ,       38.5680 ,     -121.395
20070702T18:44:39 ,       38.5660 ,     -121.395
20070702T18:44:40 ,       38.5650 ,     -121.394
20070702T18:44:41 ,       38.5640 ,     -121.394
20070702T18:44:42 ,       38.5630 ,     -121.393
20070702T18:44:43 ,       38.5620 ,     -121.393
20070702T18:44:44 ,       38.5600 ,     -121.392
20070702T18:44:45 ,       38.5590 ,     -121.391
20070702T18:44:46 ,       38.5580 ,     -121.391
20070702T18:44:47 ,       38.5570 ,     -121.390
20070702T18:44:48 ,       38.5560 ,     -121.390
20070702T18:44:49 ,       38.5550 ,     -121.389
20070702T18:44:50 ,       38.5540 ,     -121.388
20070702T18:44:51 ,       38.5520 ,     -121.388
20070702T18:44:52 ,       38.5510 ,     -121.387
20070702T18:44:53 ,       38.5500 ,     -121.386
20070702T18:44:54 ,       38.5490 ,     -121.386
20070702T18:44:55 ,       38.5480 ,     -121.385
20070702T18:44:56 ,       38.5470 ,     -121.384
20070702T18:44:57 ,       38.5460 ,     -121.383
20070702T18:44:58 ,       38.5450 ,     -121.383
20070702T18:44:59 ,       38.5440 ,     -121.382
20070702T18:45:00 ,       38.5430 ,     -121.381
20070702T18:45:01 ,       38.5420 ,     -121.380
20070702T18:45:02 ,       38.5400 ,     -121.379
20070702T18:45:03 ,       38.5390 ,     -121.378
20070702T18:45:04 ,       38.5380 ,     -121.377
20070702T18:45:05 ,       38.5370 ,     -121.377
20070702T18:45:06 ,       38.5360 ,     -121.376
20070702T18:45:07 ,       38.5350 ,     -121.375
20070702T18:45:08 ,       38.5340 ,     -121.374
20070702T18:45:09 ,       38.5330 ,     -121.373
20070702T18:45:10 ,       38.5320 ,     -121.372
20070702T18:45:11 ,       38.5310 ,     -121.371
20070702T18:45:12 ,       38.5300 ,     -121.370
20070702T18:45:13 ,       38.5290 ,     -121.369
20070702T18:45:14 ,       38.5280 ,     -121.368
20070702T18:45:15 ,       38.5270 ,     -121.367
20070702T18:45:16 ,       38.5260 ,     -121.366
20070702T18:45:17 ,       38.5250 ,     -121.365
20070702T18:45:18 ,       38.5240 ,     -121.364
20070702T18:45:19 ,       38.5230 ,     -121.363
20070702T18:45:20 ,       38.5220 ,     -121.362
20070702T18:45:21 ,       38.5210 ,     -121.361
20070702T18:45:22 ,       38.5200 ,     -121.360
20070702T18:45:23 ,       38.5190 ,     -121.359
20070702T18:45:24 ,       38.5180 ,     -121.358
20070702T18:45:25 ,       38.5170 ,     -121.357
20070702T18:45:26 ,       38.5160 ,     -121.356
20070702T18:45:27 ,       38.5150 ,     -121.355
20070702T18:45:28 ,       38.5140 ,     -121.354
20070702T18:45:29 ,       38.5130 ,     -121.353
20070702T18:45:30 ,       38.5120 ,     -121.352
20070702T18:45:31 ,       38.5110 ,     -121.351
20070702T18:45:32 ,       38.5110 ,     -121.350
20070702T18:45:33 ,       38.5100 ,     -121.349
20070702T18:45:34 ,       38.5090 ,     -121.348
20070702T18:45:35 ,       38.5080 ,     -121.347
20070702T18:45:36 ,       38.5070 ,     -121.346
20070702T18:45:37 ,       38.5060 ,     -121.345
20070702T18:45:38 ,       38.5050 ,     -121.344
20070702T18:45:39 ,       38.5040 ,     -121.343
20070702T18:45:40 ,       38.5030 ,     -121.342
20070702T18:45:41 ,       38.5020 ,     -121.340
20070702T18:45:42 ,       38.5010 ,     -121.339
20070702T18:45:43 ,       38.5000 ,     -121.338
20070702T18:45:44 ,       38.4990 ,     -121.337
20070702T18:45:45 ,       38.4980 ,     -121.336
20070702T18:45:46 ,       38.4970 ,     -121.335
20070702T18:45:47 ,       38.4960 ,     -121.334
20070702T18:45:48 ,       38.4950 ,     -121.333
20070702T18:45:49 ,       38.4940 ,     -121.332
20070702T18:45:50 ,       38.4930 ,     -121.331
20070702T18:45:51 ,       38.4920 ,     -121.330
20070702T18:45:52 ,       38.4910 ,     -121.329
20070702T18:45:53 ,       38.4910 ,     -121.328
20070702T18:45:54 ,       38.4900 ,     -121.327
20070702T18:45:55 ,       38.4890 ,     -121.326
20070702T18:45:56 ,       38.4880 ,     -121.325
20070702T18:45:57 ,       38.4870 ,     -121.323
20070702T18:45:58 ,       38.4860 ,     -121.322
20070702T18:45:59 ,       38.4850 ,     -121.321
20070702T18:46:00 ,       38.4840 ,     -121.320
20070702T18:46:01 ,       38.4830 ,     -121.319
20070702T18:46:02 ,       38.4820 ,     -121.318
20070702T18:46:03 ,       38.4810 ,     -121.317
20070702T18:46:04 ,       38.4800 ,     -121.316
20070702T18:46:05 ,       38.4790 ,     -121.315
20070702T18:46:06 ,       38.4780 ,     -121.314
20070702T18:46:07 ,       38.4770 ,     -121.313
20070702T18:46:08 ,       38.4760 ,     -121.312
20070702T18:46:09 ,       38.4750 ,     -121.311
20070702T18:46:10 ,       38.4740 ,     -121.310
20070702T18:46:11 ,       38.4730 ,     -121.309
20070702T18:46:12 ,       38.4720 ,     -121.308
20070702T18:46:13 ,       38.4710 ,     -121.307
20070702T18:46:14 ,       38.4700 ,     -121.307
20070702T18:46:15 ,       38.4690 ,     -121.306
20070702T18:46:16 ,       38.4670 ,     -121.305
20070702T18:46:17 ,       38.4660 ,     -121.304
20070702T18:46:18 ,       38.4650 ,     -121.303
20070702T18:46:19 ,       38.4640 ,     -121.303
20070702T18:46:20 ,       38.4630 ,     -121.302
20070702T18:46:21 ,       38.4620 ,     -121.301
20070702T18:46:22 ,       38.4610 ,     -121.301
20070702T18:46:23 ,       38.4590 ,     -121.300
20070702T18:46:24 ,       38.4580 ,     -121.299
20070702T18:46:25 ,       38.4570 ,     -121.299
20070702T18:46:26 ,       38.4560 ,     -121.298
20070702T18:46:27 ,       38.4550 ,     -121.298
20070702T18:46:28 ,       38.4540 ,     -121.297
20070702T18:46:29 ,       38.4520 ,     -121.297
20070702T18:46:30 ,       38.4510 ,     -121.296
20070702T18:46:31 ,       38.4500 ,     -121.296
20070702T18:46:32 ,       38.4490 ,     -121.295
20070702T18:46:33 ,       38.4480 ,     -121.295
20070702T18:46:34 ,       38.4460 ,     -121.295
20070702T18:46:35 ,       38.4450 ,     -121.294
20070702T18:46:36 ,       38.4440 ,     -121.294
20070702T18:46:37 ,       38.4430 ,     -121.294
20070702T18:46:38 ,       38.4410 ,     -121.294
20070702T18:46:39 ,       38.4400 ,     -121.293
20070702T18:46:40 ,       38.4390 ,     -121.293
20070702T18:46:41 ,       38.4380 ,     -121.293
20070702T18:46:42 ,       38.4360 ,     -121.293
20070702T18:46:43 ,       38.4350 ,     -121.293
20070702T18:46:44 ,       38.4340 ,     -121.293
20070702T18:46:45 ,       38.4320 ,     -121.293
20070702T18:46:46 ,       38.4310 ,     -121.293
20070702T18:46:47 ,       38.4300 ,     -121.293
20070702T18:46:48 ,       38.4290 ,     -121.293
20070702T18:46:49 ,       38.4270 ,     -121.293
20070702T18:46:50 ,       38.4260 ,     -121.293
20070702T18:46:51 ,       38.4250 ,     -121.293
20070702T18:46:52 ,       38.4240 ,     -121.293
20070702T18:46:53 ,       38.4220 ,     -121.293
20070702T18:46:54 ,       38.4210 ,     -121.294
20070702T18:46:55 ,       38.4200 ,     -121.294
20070702T18:46:56 ,       38.4190 ,     -121.294
20070702T18:46:57 ,       38.4170 ,     -121.294
20070702T18:46:58 ,       38.4160 ,     -121.295
20070702T18:46:59 ,       38.4150 ,     -121.295
20070702T18:47:00 ,       38.4140 ,     -121.295
20070702T18:47:01 ,       38.4130 ,     -121.296
20070702T18:47:02 ,       38.4110 ,     -121.296
20070702T18:47:03 ,       38.4100 ,     -121.296
20070702T18:47:04 ,       38.4090 ,     -121.297
20070702T18:47:05 ,       38.4080 ,     -121.297
20070702T18:47:06 ,       38.4070 ,     -121.298
20070702T18:47:07 ,       38.4050 ,     -121.298
20070702T18:47:08 ,       38.4040 ,     -121.299
20070702T18:47:09 ,       38.4030 ,     -121.299
20070702T18:47:10 ,       38.4020 ,     -121.300
20070702T18:47:11 ,       38.4010 ,     -121.301
20070702T18:47:12 ,       38.4000 ,     -121.301
20070702T18:47:13 ,       38.3980 ,     -121.302
20070702T18:47:14 ,       38.3970 ,     -121.303
20070702T18:47:15 ,       38.3960 ,     -121.303
20070702T18:47:16 ,       38.3950 ,     -121.304
20070702T18:47:17 ,       38.3940 ,     -121.305
20070702T18:47:18 ,       38.3930 ,     -121.306
20070702T18:47:19 ,       38.3920 ,     -121.307
20070702T18:47:20 ,       38.3910 ,     -121.308
20070702T18:47:21 ,       38.3900 ,     -121.308
20070702T18:47:22 ,       38.3890 ,     -121.309
20070702T18:47:23 ,       38.3880 ,     -121.310
20070702T18:47:24 ,       38.3870 ,     -121.311
20070702T18:47:25 ,       38.3860 ,     -121.312
20070702T18:47:26 ,       38.3850 ,     -121.313
20070702T18:47:27 ,       38.3840 ,     -121.314
20070702T18:47:28 ,       38.3830 ,     -121.315
20070702T18:47:29 ,       38.3820 ,     -121.317
20070702T18:47:30 ,       38.3810 ,     -121.318
20070702T18:47:31 ,       38.3800 ,     -121.319
20070702T18:47:32 ,       38.3790 ,     -121.320
20070702T18:47:33 ,       38.3790 ,     -121.321
20070702T18:47:34 ,       38.3780 ,     -121.322
20070702T18:47:35 ,       38.3770 ,     -121.324
20070702T18:47:36 ,       38.3760 ,     -121.325
20070702T18:47:37 ,       38.3750 ,     -121.326
20070702T18:47:38 ,       38.3750 ,     -121.327
20070702T18:47:39 ,       38.3740 ,     -121.329
20070702T18:47:40 ,       38.3730 ,     -121.330
20070702T18:47:41 ,       38.3720 ,     -121.331
20070702T18:47:42 ,       38.3720 ,     -121.333
20070702T18:47:43 ,       38.3710 ,     -121.334
20070702T18:47:44 ,       38.3700 ,     -121.335
20070702T18:47:45 ,       38.3700 ,     -121.337
20070702T18:47:46 ,       38.3690 ,     -121.338
20070702T18:47:47 ,       38.3680 ,     -121.340
20070702T18:47:48 ,       38.3680 ,     -121.341
20070702T18:47:49 ,       38.3670 ,     -121.342
20070702T18:47:50 ,       38.3670 ,     -121.344
20070702T18:47:51 ,       38.3660 ,     -121.345
20070702T18:47:52 ,       38.3650 ,     -121.347
20070702T18:47:53 ,       38.3650 ,     -121.348
20070702T18:47:54 ,       38.3640 ,     -121.350
20070702T18:47:55 ,       38.3640 ,     -121.351
20070702T18:47:56 ,       38.3640 ,     -121.353
20070702T18:47:57 ,       38.3630 ,     -121.355
20070702T18:47:58 ,       38.3630 ,     -121.356
20070702T18:47:59 ,       38.3620 ,     -121.358
20070702T18:48:00 ,       38.3620 ,     -121.359
20070702T18:48:01 ,       38.3620 ,     -121.361
20070702T18:48:02 ,       38.3610 ,     -121.362
20070702T18:48:03 ,       38.3610 ,     -121.364
20070702T18:48:04 ,       38.3610 ,     -121.366
20070702T18:48:05 ,       38.3600 ,     -121.367
20070702T18:48:06 ,       38.3600 ,     -121.369
20070702T18:48:07 ,       38.3600 ,     -121.370
20070702T18:48:08 ,       38.3600 ,     -121.372
20070702T18:48:09 ,       38.3590 ,     -121.374
20070702T18:48:10 ,       38.3590 ,     -121.375
20070702T18:48:11 ,       38.3590 ,     -121.377
20070702T18:48:12 ,       38.3590 ,     -121.378
20070702T18:48:13 ,       38.3590 ,     -121.380
20070702T18:48:14 ,       38.3580 ,     -121.382
20070702T18:48:15 ,       38.3580 ,     -121.383
20070702T18:48:16 ,       38.3580 ,     -121.385
20070702T18:48:17 ,       38.3580 ,     -121.386
20070702T18:48:18 ,       38.3580 ,     -121.388
20070702T18:48:19 ,       38.3580 ,     -121.390
20070702T18:48:20 ,       38.3570 ,     -121.391
20070702T18:48:21 ,       38.3570 ,     -121.393
20070702T18:48:22 ,       38.3570 ,     -121.395
20070702T18:48:23 ,       38.3570 ,     -121.396
20070702T18:48:24 ,       38.3570 ,     -121.398
20070702T18:48:25 ,       38.3570 ,     -121.399
20070702T18:48:26 ,       38.3560 ,     -121.401
20070702T18:48:27 ,       38.3560 ,     -121.403
20070702T18:48:28 ,       38.3560 ,     -121.404
20070702T18:48:29 ,       38.3560 ,     -121.406
20070702T18:48:30 ,       38.3560 ,     -121.408
20070702T18:48:31 ,       38.3550 ,     -121.409
20070702T18:48:32 ,       38.3550 ,     -121.411
20070702T18:48:33 ,       38.3550 ,     -121.412
20070702T18:48:34 ,       38.3550 ,     -121.414
20070702T18:48:35 ,       38.3550 ,     -121.416
20070702T18:48:36 ,       38.3540 ,     -121.417
20070702T18:48:37 ,       38.3540 ,     -121.419
20070702T18:48:38 ,       38.3540 ,     -121.421
20070702T18:48:39 ,       38.3540 ,     -121.422
20070702T18:48:40 ,       38.3530 ,     -121.424
20070702T18:48:41 ,       38.3530 ,     -121.425
20070702T18:48:42 ,       38.3530 ,     -121.427
20070702T18:48:43 ,       38.3530 ,     -121.429
20070702T18:48:44 ,       38.3530 ,     -121.430
20070702T18:48:45 ,       38.3520 ,     -121.432
20070702T18:48:46 ,       38.3520 ,     -121.434
20070702T18:48:47 ,       38.3520 ,     -121.435
20070702T18:48:48 ,       38.3520 ,     -121.437
20070702T18:48:49 ,       38.3520 ,     -121.439
20070702T18:48:50 ,       38.3510 ,     -121.440
20070702T18:48:51 ,       38.3510 ,     -121.442
20070702T18:48:52 ,       38.3510 ,     -121.444
20070702T18:48:53 ,       38.3510 ,     -121.445
20070702T18:48:54 ,       38.3510 ,     -121.447
20070702T18:48:55 ,       38.3500 ,     -121.448
20070702T18:48:56 ,       38.3500 ,     -121.450
20070702T18:48:57 ,       38.3500 ,     -121.452
20070702T18:48:58 ,       38.3500 ,     -121.453
20070702T18:48:59 ,       38.3500 ,     -121.455
20070702T18:49:00 ,       38.3490 ,     -121.457
20070702T18:49:01 ,       38.3490 ,     -121.458
20070702T18:49:02 ,       38.3490 ,     -121.460
20070702T18:49:03 ,       38.3490 ,     -121.462
20070702T18:49:04 ,       38.3490 ,     -121.463
20070702T18:49:05 ,       38.3480 ,     -121.465
20070702T18:49:06 ,       38.3480 ,     -121.467
20070702T18:49:07 ,       38.3480 ,     -121.468
20070702T18:49:08 ,       38.3480 ,     -121.470
20070702T18:49:09 ,       38.3480 ,     -121.472
20070702T18:49:10 ,       38.3470 ,     -121.473
20070702T18:49:11 ,       38.3470 ,     -121.475
20070702T18:49:12 ,       38.3470 ,     -121.477
20070702T18:49:13 ,       38.3470 ,     -121.478
20070702T18:49:14 ,       38.3470 ,     -121.480
20070702T18:49:15 ,       38.3460 ,     -121.482
20070702T18:49:16 ,       38.3460 ,     -121.483
20070702T18:49:17 ,       38.3460 ,     -121.485
20070702T18:49:18 ,       38.3460 ,     -121.487
20070702T18:49:19 ,       38.3460 ,     -121.488
20070702T18:49:20 ,       38.3450 ,     -121.490
20070702T18:49:21 ,       38.3450 ,     -121.492
20070702T18:49:22 ,       38.3450 ,     -121.493
20070702T18:49:23 ,       38.3450 ,     -121.495
20070702T18:49:24 ,       38.3450 ,     -121.497
20070702T18:49:25 ,       38.3440 ,     -121.498
20070702T18:49:26 ,       38.3440 ,     -121.500
20070702T18:49:27 ,       38.3440 ,     -121.502
20070702T18:49:28 ,       38.3440 ,     -121.503
20070702T18:49:29 ,       38.3440 ,     -121.505
20070702T18:49:30 ,       38.3430 ,     -121.506
20070702T18:49:31 ,       38.3430 ,     -121.508
20070702T18:49:32 ,       38.3430 ,     -121.510
20070702T18:49:33 ,       38.3430 ,     -121.511
20070702T18:49:34 ,       38.3430 ,     -121.513
20070702T18:49:35 ,       38.3420 ,     -121.515
20070702T18:49:36 ,       38.3420 ,     -121.516
20070702T18:49:37 ,       38.3420 ,     -121.518
20070702T18:49:38 ,       38.3420 ,     -121.520
20070702T18:49:39 ,       38.3420 ,     -121.521
20070702T18:49:40 ,       38.3410 ,     -121.523
20070702T18:49:41 ,       38.3410 ,     -121.525
20070702T18:49:42 ,       38.3410 ,     -121.526
20070702T18:49:43 ,       38.3410 ,     -121.528
20070702T18:49:44 ,       38.3410 ,     -121.530
20070702T18:49:45 ,       38.3410 ,     -121.531
20070702T18:49:46 ,       38.3400 ,     -121.533
20070702T18:49:47 ,       38.3400 ,     -121.534
20070702T18:49:48 ,       38.3400 ,     -121.536
20070702T18:49:49 ,       38.3400 ,     -121.538
20070702T18:49:50 ,       38.3400 ,     -121.539
20070702T18:49:51 ,       38.3390 ,     -121.541
20070702T18:49:52 ,       38.3390 ,     -121.543
20070702T18:49:53 ,       38.3390 ,     -121.544
20070702T18:49:54 ,       38.3390 ,     -121.546
20070702T18:49:55 ,       38.3390 ,     -121.547
20070702T18:49:56 ,       38.3380 ,     -121.549
20070702T18:49:57 ,       38.3380 ,     -121.551
20070702T18:49:58 ,       38.3380 ,     -121.552
20070702T18:49:59 ,       38.3380 ,     -121.554
20070702T18:50:00 ,       38.3380 ,     -121.556
20070702T18:50:01 ,       38.3370 ,     -121.557
20070702T18:50:02 ,       38.3370 ,     -121.559
20070702T18:50:03 ,       38.3370 ,     -121.560
20070702T18:50:04 ,       38.3370 ,     -121.562
20070702T18:50:05 ,       38.3370 ,     -121.564
20070702T18:50:06 ,       38.3370 ,     -121.565
20070702T18:50:07 ,       38.3360 ,     -121.567
20070702T18:50:08 ,       38.3360 ,     -121.569
20070702T18:50:09 ,       38.3360 ,     -121.570
20070702T18:50:10 ,       38.3360 ,     -121.572
20070702T18:50:11 ,       38.3360 ,     -121.573
20070702T18:50:12 ,       38.3350 ,     -121.575
20070702T18:50:13 ,       38.3350 ,     -121.577
20070702T18:50:14 ,       38.3350 ,     -121.578
20070702T18:50:15 ,       38.3350 ,     -121.580
20070702T18:50:16 ,       38.3350 ,     -121.581
20070702T18:50:17 ,       38.3340 ,     -121.583
20070702T18:50:18 ,       38.3340 ,     -121.585
20070702T18:50:19 ,       38.3340 ,     -121.586
20070702T18:50:20 ,       38.3340 ,     -121.588
20070702T18:50:21 ,       38.3340 ,     -121.589
20070702T18:50:22 ,       38.3340 ,     -121.591
20070702T18:50:23 ,       38.3330 ,     -121.593
20070702T18:50:24 ,       38.3330 ,     -121.594
20070702T18:50:25 ,       38.3330 ,     -121.596
20070702T18:50:26 ,       38.3330 ,     -121.597
20070702T18:50:27 ,       38.3330 ,     -121.599
20070702T18:50:28 ,       38.3330 ,     -121.600
20070702T18:50:29 ,       38.3320 ,     -121.602
20070702T18:50:30 ,       38.3320 ,     -121.604
20070702T18:50:31 ,       38.3320 ,     -121.605
20070702T18:50:32 ,       38.3320 ,     -121.607
20070702T18:50:33 ,       38.3320 ,     -121.608
20070702T18:50:34 ,       38.3320 ,     -121.610
20070702T18:50:35 ,       38.3310 ,     -121.612
20070702T18:50:36 ,       38.3310 ,     -121.613
20070702T18:50:37 ,       38.3310 ,     -121.615
20070702T18:50:38 ,       38.3310 ,     -121.616
20070702T18:50:39 ,       38.3310 ,     -121.618
20070702T18:50:40 ,       38.3310 ,     -121.619
20070702T18:50:41 ,       38.3300 ,     -121.621
20070702T18:50:42 ,       38.3300 ,     -121.622
20070702T18:50:43 ,       38.3300 ,     -121.624
20070702T18:50:44 ,       38.3300 ,     -121.626
20070702T18:50:45 ,       38.3300 ,     -121.627
20070702T18:50:46 ,       38.3300 ,     -121.629
20070702T18:50:47 ,       38.3300 ,     -121.630
20070702T18:50:48 ,       38.3290 ,     -121.632
20070702T18:50:49 ,       38.3290 ,     -121.633
20070702T18:50:50 ,       38.3290 ,     -121.635
20070702T18:50:51 ,       38.3290 ,     -121.637
20070702T18:50:52 ,       38.3290 ,     -121.638
20070702T18:50:53 ,       38.3290 ,     -121.640
20070702T18:50:54 ,       38.3290 ,     -121.641
20070702T18:50:55 ,       38.3280 ,     -121.643
20070702T18:50:56 ,       38.3280 ,     -121.644
20070702T18:50:57 ,       38.3280 ,     -121.646
20070702T18:50:58 ,       38.3280 ,     -121.648
20070702T18:50:59 ,       38.3280 ,     -121.649
20070702T18:51:00 ,       38.3280 ,     -121.651
20070702T18:51:01 ,       38.3270 ,     -121.652
20070702T18:51:02 ,       38.3270 ,     -121.654
20070702T18:51:03 ,       38.3270 ,     -121.655
20070702T18:51:04 ,       38.3270 ,     -121.657
20070702T18:51:05 ,       38.3270 ,     -121.658
20070702T18:51:06 ,       38.3270 ,     -121.660
20070702T18:51:07 ,       38.3270 ,     -121.661
20070702T18:51:08 ,       38.3260 ,     -121.663
20070702T18:51:09 ,       38.3260 ,     -121.665
20070702T18:51:10 ,       38.3260 ,     -121.666
20070702T18:51:11 ,       38.3260 ,     -121.668
20070702T18:51:12 ,       38.3260 ,     -121.669
20070702T18:51:13 ,       38.3260 ,     -121.671
20070702T18:51:14 ,       38.3250 ,     -121.672
20070702T18:51:15 ,       38.3250 ,     -121.674
20070702T18:51:16 ,       38.3250 ,     -121.675